User: anonymous   Login
Location: Geroldsau
(48.7259°N, 8.2466°E)
Time: 01:11:47
(UTC+00:00)
Language:

FALCON 9 DEB - Orbit

View from above orbital plane
View from above orbital plane
View from above satellite
View from above satellite

Ground track
Ground track

The orbit data is extracted from the following two-line orbital elements,

1 46086U 20055BM  21259.28474411  .00019530  00000-0  17002-3 0  9997
2 46086  53.0058 108.1221 0012072 170.9667 189.1568 15.68995865 67935
Epoch (UTC): 16 September 2021 06:50:01
Eccentricity: 0.0012072
inclination: 53.0058°
perigee height: 353 km
apogee height: 370 km
right ascension of ascending node: 108.1221°
argument of perigee: 170.9667°
revolutions per day: 15.68995865
mean anomaly at epoch: 189.1568°
orbit number at epoch: 6793

The dashed part of the orbit path shows where the satellite is in the earth's shadow,  

DLR